ヒル彗星

C/2014 F1 ( Hill )

English version
Home page
Updated on May 8, 2015

---------------------------------------------------------------------

・ プロフィール

発見日 2014年3月29日
発見光度 18.6等
発見者 R. E. Hill (Catalina Sky Survey)

・ 写真集

・ 軌道要素

Epoch 2013 Sept. 25.0 TT = JDT 2456560.5
T 2013 Oct. 4.84366 TT                                  MPC
q   3.4961079            (2000.0)            P               Q
z  +0.0002621      Peri.    8.24273     -0.53515468     -0.19631395
 +/-0.0000205      Node   239.90195     -0.81907194     -0.11741901
e   0.9990838      Incl.  108.25489     -0.20671390     +0.97348529
From 164 observations 2014 Mar. 29-July 18, mean residual 0".5.

・ 光度変化

        m1 = 10.0 + 5 logΔ + 10.0 log r

---------------------------------------------------------------------

軌道要素はM.P.E.C. 2014-V27に掲載されたものです。
光度グラフはComet for Windowsで作成したものです。

---------------------------------------------------------------------

Copyright(C) Seiichi Yoshida (comet@aerith.net). All rights reserved.